Back to catalog

METEOR 2-8 DEB

LostPO
NORAD 36866·DEBRIS·🇷🇺 Russia

Launched Mar 25, 1982 from Plesetsk Cosmodrome

Loading…

Next Passes (next 24 hours)

TLE

StaleSource: Space-Track

Epoch: Nov 27, 2023, 11:17 UTC

1 36866U 82025BD  23331.47068443  .00005542  00000-0  32662-2 0  9991
2 36866  82.5315  21.3738 0016106  16.5771 343.5925 14.07684203  7328

Track METEOR 2-8 DEB in real time with AllMySat

Download on the App Store